Tracking 19242 objects as of 15-Aug-2018
HD Live streaming from Space Station
objects crossing your sky now

FENGYUN 1C DEB

Track FENGYUN 1C DEB now!
10-day predictions


NORAD ID: 30068
Int'l Code: 1999-025PV
Perigee: 724.7 km
Apogee: 1,006.4 km
Inclination: 98.8 °
Period: 102.1 minutes
Semi major axis: 7236 km
RCS: 0.0703 m2 (small)
Launch date: May 10, 1999
Source: People's Republic of China (PRC)
Launch site: Taiyaun Space Center, China (TSC)

Note: This is SATELLITE DEBRIS
aabbcc
Your satellite tracking list
Your tracking list is empty




NASA's NSSDC Master Catalog

Two Line Element Set (TLE):
1 30068U 99025PV  18226.94389329 +.00000032 +00000-0 +35561-4 0  9997
2 30068 098.7857 256.6115 0194600 028.8563 332.3206 14.10277716596017
Source of the keplerian elements: AFSPC